When you browse on this site, cookies collect data to enhance your experience and personalize the content and advertising you see.
Visit our Privacy Policy to learn more. By continuing to use the site, you agree to this use of cookies and data.

Meteo pe oră la Saint-Jean-de-Braye

Astăzi, 5 Iulie, Duminică

Timp Temperatura Precipitaţii Vânt Presiune Umiditate
00:00 +19°C° 0 mm 4 m/s 756 mmHg 85%
01:00 +19°C° 0 mm 4 m/s 756 mmHg 86%
02:00 +19°C° 0 mm 4 m/s 756 mmHg 87%
03:00 +18°C° 0 mm 4 m/s 756 mmHg 88%
04:00 +19°C° 0 mm 4 m/s 756 mmHg 88%
05:00 +19°C° 0 mm 4 m/s 756 mmHg 89%
06:00 +19°C° 0 mm 4 m/s 756 mmHg 85%
07:00 +19°C° 0 mm 5 m/s 756 mmHg 83%
08:00 +20°C° 0 mm 5 m/s 756 mmHg 81%
09:00 +21°C° 0 mm 5 m/s 756 mmHg 80%
10:00 +21°C° 0 mm 5 m/s 756 mmHg 79%
11:00 +21°C° 0 mm 5 m/s 756 mmHg 78%
12:00 +22°C° 0 mm 6 m/s 756 mmHg 77%
13:00 +22°C° 0 mm 5 m/s 756 mmHg 77%
14:00 +22°C° 0 mm 5 m/s 755 mmHg 78%
15:00 +22°C° 0 mm 5 m/s 755 mmHg 79%
16:00 +21°C° 0 mm 4 m/s 755 mmHg 79%
17:00 +21°C° 0 mm 4 m/s 755 mmHg 80%
18:00 +21°C° 0 mm 4 m/s 755 mmHg 80%
19:00 +21°C° 0 mm 4 m/s 755 mmHg 82%
20:00 +20°C° 0 mm 4 m/s 756 mmHg 83%
21:00 +19°C° 0 mm 4 m/s 756 mmHg 85%
22:00 +18°C° 0 mm 4 m/s 756 mmHg 86%
23:00 +17°C° 0 mm 4 m/s 756 mmHg 86%

Mâine, 6 Iulie, Luni

Timp Temperatura Precipitaţii Vânt Presiune Umiditate
00:00 +15°C° 0 mm 4 m/s 756 mmHg 87%
01:00 +13°C° 0 mm 3 m/s 756 mmHg 87%
02:00 +12°C° 0 mm 3 m/s 756 mmHg 86%
03:00 +10°C° 0 mm 2 m/s 756 mmHg 86%
04:00 +11°C° 0 mm 3 m/s 757 mmHg 85%
05:00 +11°C° 0 mm 3 m/s 757 mmHg 83%
06:00 +12°C° 0 mm 3 m/s 757 mmHg 82%
07:00 +13°C° 0 mm 3 m/s 757 mmHg 75%
08:00 +14°C° 0 mm 3 m/s 758 mmHg 68%
09:00 +17°C° 0 mm 4 m/s 758 mmHg 62%
10:00 +18°C° 0 mm 4 m/s 758 mmHg 60%
11:00 +18°C° 0 mm 4 m/s 758 mmHg 59%
12:00 +19°C° 0 mm 4 m/s 758 mmHg 58%
13:00 +19°C° 0 mm 4 m/s 758 mmHg 57%
14:00 +20°C° 0 mm 4 m/s 758 mmHg 55%
15:00 +20°C° 0 mm 4 m/s 758 mmHg 54%
16:00 +20°C° 0 mm 4 m/s 758 mmHg 57%
17:00 +20°C° 0 mm 4 m/s 758 mmHg 59%
18:00 +19°C° 0 mm 3 m/s 759 mmHg 61%
19:00 +17°C° 0 mm 3 m/s 759 mmHg 67%
20:00 +14°C° 0 mm 3 m/s 759 mmHg 73%
21:00 +13°C° 0 mm 2 m/s 760 mmHg 79%
22:00 +12°C° 0 mm 2 m/s 760 mmHg 83%
23:00 +12°C° 0 mm 2 m/s 760 mmHg 86%

Poimâine, 7 Iulie, Marţi

Timp Temperatura Precipitaţii Vânt Presiune Umiditate
00:00 +10°C° 0 mm 2 m/s 759 mmHg 89%
01:00 +10°C° 0 mm 2 m/s 759 mmHg 90%
02:00 +9°C° 0 mm 2 m/s 759 mmHg 91%
03:00 +10°C° 0 mm 1 m/s 759 mmHg 92%
04:00 +11°C° 0 mm 1 m/s 759 mmHg 88%
05:00 +12°C° 0 mm 1 m/s 759 mmHg 85%
06:00 +12°C° 0 mm 0 m/s 759 mmHg 81%
07:00 +15°C° 0 mm 1 m/s 759 mmHg 73%
08:00 +18°C° 0 mm 1 m/s 759 mmHg 65%
09:00 +20°C° 0 mm 1 m/s 759 mmHg 57%
10:00 +22°C° 0 mm 1 m/s 759 mmHg 53%
11:00 +23°C° 0 mm 1 m/s 758 mmHg 48%
12:00 +24°C° 0 mm 1 m/s 758 mmHg 44%
13:00 +24°C° 0 mm 1 m/s 758 mmHg 43%
14:00 +25°C° 0 mm 1 m/s 757 mmHg 42%
15:00 +25°C° 0 mm 2 m/s 757 mmHg 41%
16:00 +24°C° 0 mm 1 m/s 757 mmHg 46%
17:00 +24°C° 0 mm 1 m/s 757 mmHg 51%
18:00 +23°C° 0 mm 1 m/s 756 mmHg 56%
19:00 +21°C° 0 mm 1 m/s 757 mmHg 60%
20:00 +19°C° 0 mm 1 m/s 757 mmHg 64%
21:00 +18°C° 0 mm 1 m/s 757 mmHg 68%
22:00 +16°C° 0 mm 1 m/s 757 mmHg 72%
23:00 +15°C° 0 mm 1 m/s 757 mmHg 75%

8 Iulie, Miercuri

Timp Temperatura Precipitaţii Vânt Presiune Umiditate
00:00 +14°C° 0 mm 1 m/s 756 mmHg 79%
01:00 +14°C° 0 mm 1 m/s 756 mmHg 82%
02:00 +13°C° 0 mm 1 m/s 756 mmHg 84%
03:00 +13°C° 0 mm 1 m/s 756 mmHg 87%
04:00 +14°C° 0 mm 1 m/s 756 mmHg 84%
05:00 +15°C° 0 mm 1 m/s 756 mmHg 81%
06:00 +15°C° 0 mm 0 m/s 756 mmHg 78%
07:00 +19°C° 0 mm 1 m/s 757 mmHg 70%
08:00 +21°C° 0 mm 1 m/s 757 mmHg 62%
09:00 +23°C° 0 mm 1 m/s 757 mmHg 55%
10:00 +24°C° 0 mm 2 m/s 757 mmHg 50%
11:00 +25°C° 0 mm 2 m/s 757 mmHg 46%
12:00 +26°C° 0 mm 3 m/s 757 mmHg 42%
13:00 +27°C° 0 mm 3 m/s 756 mmHg 43%
14:00 +27°C° 0 mm 3 m/s 756 mmHg 45%
15:00 +27°C° 0 mm 3 m/s 756 mmHg 46%
16:00 +26°C° 0 mm 3 m/s 756 mmHg 52%
17:00 +26°C° 0 mm 3 m/s 756 mmHg 59%
18:00 +25°C° 0 mm 2 m/s 756 mmHg 65%
19:00 +23°C° 0 mm 2 m/s 756 mmHg 70%
20:00 +20°C° 0 mm 2 m/s 756 mmHg 76%
21:00 +18°C° 0 mm 2 m/s 757 mmHg 81%
22:00 +17°C° 0 mm 2 m/s 757 mmHg 81%
23:00 +16°C° 0 mm 2 m/s 757 mmHg 82%

9 Iulie, Joi

Timp Temperatura Precipitaţii Vânt Presiune Umiditate
00:00 +15°C° 0 mm 2 m/s 757 mmHg 82%
01:00 +15°C° 0 mm 2 m/s 757 mmHg 82%
02:00 +14°C° 0 mm 2 m/s 757 mmHg 82%
03:00 +14°C° 0 mm 2 m/s 757 mmHg 81%
04:00 +14°C° 0 mm 2 m/s 757 mmHg 80%
05:00 +15°C° 0 mm 1 m/s 757 mmHg 78%
06:00 +16°C° 0 mm 1 m/s 757 mmHg 76%
07:00 +19°C° 0 mm 1 m/s 757 mmHg 70%
08:00 +21°C° 0 mm 1 m/s 757 mmHg 63%
09:00 +24°C° 0 mm 1 m/s 757 mmHg 57%
10:00 +25°C° 0 mm 1 m/s 757 mmHg 52%
11:00 +27°C° 0 mm 1 m/s 757 mmHg 48%
12:00 +28°C° 0 mm 1 m/s 756 mmHg 43%
13:00 +29°C° 0 mm 1 m/s 756 mmHg 42%
14:00 +29°C° 0 mm 1 m/s 755 mmHg 41%
15:00 +30°C° 0 mm 1 m/s 755 mmHg 40%
16:00 +29°C° 0 mm 1 m/s 755 mmHg 45%
17:00 +28°C° 0 mm 1 m/s 754 mmHg 50%
18:00 +27°C° 0 mm 1 m/s 754 mmHg 55%
19:00 +25°C° 0 mm 1 m/s 754 mmHg 60%
20:00 +23°C° 0 mm 1 m/s 754 mmHg 65%
21:00 +21°C° 0 mm 1 m/s 754 mmHg 70%
22:00 +20°C° 0 mm 1 m/s 754 mmHg 74%
23:00 +20°C° 0 mm 1 m/s 753 mmHg 77%

10 Iulie, Vineri

Timp Temperatura Precipitaţii Vânt Presiune Umiditate
00:00 +19°C° 0 mm 1 m/s 753 mmHg 81%
01:00 +19°C° 0 mm 1 m/s 753 mmHg 82%
02:00 +18°C° 0 mm 1 m/s 753 mmHg 84%
03:00 +18°C° 0 mm 1 m/s 752 mmHg 85%
04:00 +17°C° 0 mm 2 m/s 752 mmHg 85%
05:00 +18°C° 0 mm 2 m/s 752 mmHg 84%
06:00 +18°C° 0 mm 3 m/s 752 mmHg 83%
07:00 +19°C° 0 mm 3 m/s 753 mmHg 79%
08:00 +20°C° 0 mm 3 m/s 753 mmHg 75%
09:00 +22°C° 0 mm 3 m/s 753 mmHg 70%
10:00 +22°C° 0 mm 3 m/s 753 mmHg 69%
11:00 +22°C° 0 mm 3 m/s 754 mmHg 67%
12:00 +22°C° 0 mm 3 m/s 754 mmHg 65%
13:00 +22°C° 0 mm 4 m/s 754 mmHg 62%
14:00 +22°C° 0 mm 4 m/s 754 mmHg 59%
15:00 +23°C° 0 mm 4 m/s 754 mmHg 56%
16:00 +22°C° 0 mm 4 m/s 754 mmHg 56%
17:00 +21°C° 0 mm 4 m/s 755 mmHg 57%
18:00 +20°C° 0 mm 5 m/s 755 mmHg 57%
19:00 +18°C° 0 mm 4 m/s 755 mmHg 61%
20:00 +15°C° 0 mm 4 m/s 756 mmHg 64%
21:00 +13°C° 0 mm 4 m/s 757 mmHg 68%
22:00 +12°C° 0 mm 3 m/s 757 mmHg 74%
23:00 +11°C° 0 mm 3 m/s 757 mmHg 80%
Arată mai mult